EWG59H EDDL-LEIB

Flight info

Callsign EWG59H
Flight time N/A
Altitude 24000
Route MODRU2T MODRU Z283 LNO/N0453F350 Z283 SOPOK DCT ROUSY DCT GTQ DCT POGOL DCT LASAT DCT MOROK DCT GILIR DCT GEVEA DCT INCUS DCT BALSI DCT RETNO DCT TUPOX DCT MTG DCT DIVKO DCT VATIR DCT PIVUS Z237 SULID DCT DIMIB DCT POS
Aircraft A321/M-SDE3FGHIRWY/LB1

Departure

Time 2026-05-04 19:34
Airport Düsseldorf Airport (EDDL)

Arrival

Time N/A
Airport Ibiza Airport (LEIB)
Time Latitude Longitude Altitude Speed Heading
2026-05-04 18:20 51.28109 6.76544 126 ft 0 kts 95°
2026-05-04 19:11 51.28109 6.76543 128 ft 2 kts 95°
2026-05-04 19:11 51.28111 6.76513 124 ft 3 kts 95°
2026-05-04 19:12 51.28113 6.76483 126 ft 3 kts 95°
2026-05-04 19:12 51.28109 6.76425 124 ft 3 kts 25°
2026-05-04 19:12 51.28097 6.76420 122 ft 0 kts 352°
2026-05-04 19:16 51.28099 6.76419 122 ft 2 kts 353°
2026-05-04 19:16 51.28139 6.76423 124 ft 9 kts
2026-05-04 19:16 51.28208 6.76435 127 ft 12 kts
2026-05-04 19:16 51.28268 6.76491 125 ft 10 kts 32°
2026-05-04 19:17 51.28343 6.76491 126 ft 11 kts 13°
2026-05-04 19:17 51.28400 6.76588 120 ft 14 kts 53°
2026-05-04 19:17 51.28464 6.76724 123 ft 17 kts 52°
2026-05-04 19:17 51.28540 6.76882 125 ft 19 kts 53°
2026-05-04 19:18 51.28632 6.77076 129 ft 24 kts 52°
2026-05-04 19:18 51.28735 6.77291 125 ft 25 kts 53°
2026-05-04 19:18 51.28837 6.77505 129 ft 25 kts 52°
2026-05-04 19:18 51.28950 6.77744 128 ft 27 kts 53°
2026-05-04 19:19 51.29055 6.77963 127 ft 21 kts 53°
2026-05-04 19:19 51.29119 6.78100 133 ft 12 kts 60°
2026-05-04 19:19 51.29125 6.78225 135 ft 13 kts 93°
2026-05-04 19:19 51.29157 6.78350 139 ft 12 kts 41°
2026-05-04 19:20 51.29223 6.78428 144 ft 12 kts 36°
2026-05-04 19:20 51.29299 6.78516 149 ft 15 kts 35°
2026-05-04 19:20 51.29373 6.78571 152 ft 11 kts
2026-05-04 19:20 51.29430 6.78569 152 ft 3 kts 356°
2026-05-04 19:21 51.29432 6.78569 152 ft 0 kts 356°
2026-05-04 19:21 51.29433 6.78569 152 ft 1 kts 356°
2026-05-04 19:21 51.29454 6.78566 152 ft 7 kts 355°
2026-05-04 19:21 51.29514 6.78497 151 ft 14 kts 280°
2026-05-04 19:22 51.29489 6.78405 149 ft 0 kts 233°
2026-05-04 19:24 51.29483 6.78394 148 ft 6 kts 233°
2026-05-04 19:24 51.29327 6.78066 140 ft 75 kts 232°
2026-05-04 19:24 51.29023 6.77428 128 ft 30 kts 234°
2026-05-04 19:24 51.28993 6.77364 124 ft 0 kts 232°
2026-05-04 19:25 51.28988 6.77353 124 ft 5 kts 232°
2026-05-04 19:25 51.28941 6.77254 127 ft 17 kts 232°
2026-05-04 19:26 51.28848 6.77060 127 ft 27 kts 233°
2026-05-04 19:26 51.28719 6.76788 127 ft 32 kts 232°
2026-05-04 19:26 51.28641 6.76643 126 ft 12 kts 210°
2026-05-04 19:26 51.28581 6.76680 126 ft 11 kts 143°
2026-05-04 19:27 51.28545 6.76724 125 ft 0 kts 142°
2026-05-04 19:27 51.28543 6.76726 124 ft 2 kts 142°
2026-05-04 19:27 51.28517 6.76778 126 ft 9 kts 112°
2026-05-04 19:27 51.28546 6.76893 125 ft 14 kts 54°
2026-05-04 19:28 51.28620 6.77049 127 ft 21 kts 53°
2026-05-04 19:28 51.28715 6.77247 128 ft 24 kts 53°
2026-05-04 19:28 51.28824 6.77476 127 ft 27 kts 53°
2026-05-04 19:28 51.28938 6.77717 127 ft 27 kts 53°
2026-05-04 19:29 51.29049 6.77951 124 ft 26 kts 53°
2026-05-04 19:29 51.29154 6.78172 135 ft 23 kts 52°
2026-05-04 19:29 51.29242 6.78355 142 ft 19 kts 54°
2026-05-04 19:29 51.29310 6.78501 149 ft 14 kts 53°
2026-05-04 19:30 51.29377 6.78571 152 ft 10 kts 10°
2026-05-04 19:30 51.29430 6.78569 152 ft 0 kts 356°
2026-05-04 19:31 51.29435 6.78568 152 ft 3 kts 355°
2026-05-04 19:31 51.29477 6.78562 152 ft 9 kts 352°
2026-05-04 19:31 51.29522 6.78480 151 ft 11 kts 254°
2026-05-04 19:32 51.29506 6.78442 150 ft 0 kts 233°
2026-05-04 19:33 51.29504 6.78438 149 ft 3 kts 233°
2026-05-04 19:33 51.29380 6.78176 143 ft 66 kts 232°
2026-05-04 19:34 51.28962 6.77300 129 ft 130 kts 233°
2026-05-04 19:34 51.28325 6.75961 356 ft 159 kts 232°
2026-05-04 19:34 51.27700 6.74630 1050 ft 157 kts 231°
2026-05-04 19:34 51.27031 6.73188 1527 ft 170 kts 233°
2026-05-04 19:35 51.26298 6.71572 1810 ft 189 kts 234°
2026-05-04 19:35 51.25487 6.69795 2113 ft 206 kts 234°
2026-05-04 19:35 51.24641 6.67967 2627 ft 211 kts 233°
2026-05-04 19:35 51.23779 6.66032 3193 ft 215 kts 241°
2026-05-04 19:36 51.23485 6.63737 3851 ft 217 kts 277°
2026-05-04 19:36 51.24181 6.61515 4173 ft 238 kts 309°
2026-05-04 19:36 51.25439 6.59631 4369 ft 262 kts 320°
2026-05-04 19:36 51.26927 6.57832 4930 ft 271 kts 323°
2026-05-04 19:37 51.28472 6.56064 5626 ft 275 kts 323°
2026-05-04 19:37 51.30032 6.54273 6360 ft 277 kts 323°
2026-05-04 19:37 51.31593 6.52433 7044 ft 280 kts 322°
2026-05-04 19:37 51.33147 6.50539 7724 ft 283 kts 321°
2026-05-04 19:38 51.34686 6.48615 8396 ft 286 kts 321°
2026-05-04 19:38 51.36240 6.46638 9076 ft 289 kts 321°
2026-05-04 19:38 51.37795 6.44590 9733 ft 292 kts 315°
2026-05-04 19:38 51.38973 6.41925 10326 ft 294 kts 292°
2026-05-04 19:39 51.39417 6.38741 10921 ft 295 kts 269°
2026-05-04 19:39 51.39056 6.35522 11520 ft 296 kts 246°
2026-05-04 19:39 51.38391 6.33631 11912 ft 296 kts 231°
2026-05-04 19:39 51.36871 6.31433 12513 ft 297 kts 213°
2026-05-04 19:40 51.34582 6.29005 13359 ft 299 kts 212°
2026-05-04 19:40 51.32815 6.27239 13952 ft 301 kts 206°
2026-05-04 19:40 51.30836 6.25937 14196 ft 316 kts 200°
2026-05-04 19:40 51.28714 6.24694 14322 ft 333 kts 199°
2026-05-04 19:41 51.27213 6.23825 14406 ft 345 kts 199°
2026-05-04 19:41 51.24941 6.22514 14527 ft 360 kts 199°
2026-05-04 19:41 51.22534 6.21120 14645 ft 375 kts 199°
2026-05-04 19:41 51.20044 6.19672 14842 ft 386 kts 200°
2026-05-04 19:42 51.17505 6.18190 15244 ft 390 kts 199°
2026-05-04 19:42 51.14095 6.16197 15755 ft 397 kts 200°
2026-05-04 19:42 51.11498 6.14681 16234 ft 398 kts 200°
2026-05-04 19:42 51.08891 6.13162 16709 ft 400 kts 200°
2026-05-04 19:43 51.07121 6.12131 17029 ft 401 kts 200°
2026-05-04 19:43 51.04531 6.10630 17494 ft 403 kts 200°
2026-05-04 19:43 51.01917 6.08999 17953 ft 404 kts 205°
2026-05-04 19:43 50.99472 6.06778 18388 ft 406 kts 212°
2026-05-04 19:44 50.97080 6.04387 18784 ft 408 kts 212°
2026-05-04 19:44 50.94670 6.01992 19176 ft 409 kts 211°
2026-05-04 19:44 50.92217 5.99679 19568 ft 411 kts 209°
2026-05-04 19:44 50.89708 5.97488 19968 ft 413 kts 208°
2026-05-04 19:45 50.87159 5.95367 20363 ft 415 kts 207°
2026-05-04 19:45 50.84590 5.93270 20755 ft 416 kts 207°
2026-05-04 19:45 50.82044 5.91185 21088 ft 418 kts 207°
2026-05-04 19:45 50.79472 5.89040 21166 ft 418 kts 207°
2026-05-04 19:46 50.76915 5.86857 21177 ft 418 kts 208°
2026-05-04 19:46 50.74362 5.84645 21343 ft 420 kts 208°
2026-05-04 19:46 50.71801 5.82413 21742 ft 421 kts 208°
2026-05-04 19:46 50.69230 5.80175 22131 ft 423 kts 208°
2026-05-04 19:47 50.66648 5.77937 22500 ft 424 kts 208°
2026-05-04 19:47 50.64048 5.75699 22859 ft 426 kts 208°
2026-05-04 19:47 50.61377 5.73660 23205 ft 428 kts 201°
2026-05-04 19:47 50.58511 5.72355 23541 ft 431 kts 191°
2026-05-04 19:48 50.55526 5.71861 23847 ft 433 kts 181°
2026-05-04 19:48 50.52556 5.72178 24187 ft 434 kts 174°
2026-05-04 19:48 50.49558 5.72766 24521 ft 435 kts 174°
2026-05-04 19:48 50.46552 5.73350 24854 ft 436 kts 175°
2026-05-04 19:49 50.43541 5.73924 25169 ft 436 kts 175°
2026-05-04 19:49 50.40524 5.74492 25480 ft 437 kts 175°
2026-05-04 19:49 50.37505 5.75061 25768 ft 437 kts 175°
2026-05-04 19:49 50.34482 5.75634 26052 ft 438 kts 175°
2026-05-04 19:50 50.31458 5.76208 26326 ft 438 kts 175°
2026-05-04 19:50 50.28467 5.76779 26576 ft 439 kts 175°
2026-05-04 19:50 50.25438 5.77430 26801 ft 441 kts 171°
2026-05-04 19:50 50.22459 5.78624 27038 ft 443 kts 167°
2026-05-04 19:51 50.19503 5.79948 27363 ft 441 kts 167°
2026-05-04 19:51 50.16561 5.81266 27689 ft 439 kts 167°
2026-05-04 19:51 50.13631 5.82571 28049 ft 437 kts 167°
2026-05-04 19:51 50.10715 5.83867 28391 ft 435 kts 167°
2026-05-04 19:52 50.07811 5.85157 28725 ft 433 kts 167°
2026-05-04 19:52 50.04957 5.86428 29072 ft 431 kts 167°
2026-05-04 19:52 50.02076 5.87709 29371 ft 431 kts 167°
2026-05-04 19:52 49.99193 5.88986 29658 ft 430 kts 168°
2026-05-04 19:53 49.96315 5.90252 29979 ft 429 kts 168°
2026-05-04 19:53 49.93445 5.91512 30236 ft 428 kts 168°
2026-05-04 19:53 49.90596 5.92763 30613 ft 423 kts 167°
2026-05-04 19:53 49.87777 5.94000 30955 ft 420 kts 168°
2026-05-04 19:54 49.84968 5.95233 31232 ft 419 kts 168°
2026-05-04 19:54 49.82165 5.96464 31480 ft 418 kts 168°
2026-05-04 19:54 49.79360 5.97693 31699 ft 418 kts 168°
2026-05-04 19:54 49.76599 5.98904 31929 ft 418 kts 168°
2026-05-04 19:55 49.73801 6.00129 32158 ft 418 kts 168°
2026-05-04 19:55 49.71000 6.01352 32383 ft 418 kts 168°
2026-05-04 19:55 49.68204 6.02569 32608 ft 418 kts 168°
2026-05-04 19:55 49.65403 6.03788 32832 ft 418 kts 168°
2026-05-04 19:56 49.62604 6.05007 33065 ft 418 kts 168°
2026-05-04 19:56 49.59808 6.06224 33294 ft 417 kts 168°
2026-05-04 19:56 49.57016 6.07437 33487 ft 418 kts 168°
2026-05-04 19:56 49.54250 6.08631 33679 ft 418 kts 168°
2026-05-04 19:57 49.51446 6.09838 33890 ft 418 kts 168°
2026-05-04 19:57 49.48694 6.11337 34070 ft 423 kts 159°
2026-05-04 19:57 49.46105 6.13535 34226 ft 429 kts 150°
2026-05-04 19:57 49.43731 6.16340 34377 ft 433 kts 146°
2026-05-04 19:58 49.41389 6.19264 34525 ft 433 kts 146°
2026-05-04 19:58 49.39035 6.22157 34676 ft 432 kts 149°
2026-05-04 19:58 49.36447 6.24374 34799 ft 424 kts 164°
2026-05-04 19:58 49.33617 6.25436 34940 ft 417 kts 178°
2026-05-04 19:59 49.30762 6.25546 34989 ft 417 kts 182°
2026-05-04 19:59 49.24939 6.25495 34987 ft 419 kts 183°
2026-05-04 20:00 49.19109 6.25410 34993 ft 419 kts 183°
2026-05-04 20:00 49.13273 6.25353 34995 ft 419 kts 182°
2026-05-04 20:01 49.07436 6.25320 35005 ft 420 kts 182°
2026-05-04 20:01 49.01618 6.25295 35011 ft 421 kts 182°
2026-05-04 20:02 48.95755 6.25260 35017 ft 422 kts 182°
2026-05-04 20:02 48.89881 6.25201 35011 ft 422 kts 182°
2026-05-04 20:03 48.83998 6.25146 35015 ft 423 kts 182°
2026-05-04 20:03 48.78105 6.25107 35022 ft 423 kts 182°
2026-05-04 20:04 48.72211 6.25071 35024 ft 424 kts 182°
2026-05-04 20:04 48.66353 6.25028 35027 ft 424 kts 182°
2026-05-04 20:05 48.60454 6.24990 35030 ft 424 kts 182°
2026-05-04 20:05 48.54549 6.24953 35028 ft 424 kts 182°
2026-05-04 20:06 48.48649 6.24906 35028 ft 424 kts 182°
2026-05-04 20:06 48.42746 6.24853 35025 ft 424 kts 182°
2026-05-04 20:07 48.36843 6.24805 35028 ft 424 kts 182°
2026-05-04 20:07 48.30940 6.24774 35028 ft 424 kts 182°
2026-05-04 20:08 48.25036 6.24753 35024 ft 424 kts 182°
2026-05-04 20:08 48.19172 6.24707 35028 ft 424 kts 182°
2026-05-04 20:09 48.13273 6.24654 35026 ft 424 kts 182°
2026-05-04 20:09 48.07373 6.24614 35026 ft 424 kts 182°
2026-05-04 20:10 48.01471 6.24567 35023 ft 424 kts 183°
2026-05-04 20:10 47.95575 6.24526 35029 ft 424 kts 182°
2026-05-04 20:11 47.89720 6.24489 35028 ft 424 kts 182°
2026-05-04 20:11 47.83826 6.24453 35016 ft 423 kts 183°
2026-05-04 20:12 47.77937 6.24413 35025 ft 423 kts 183°
2026-05-04 20:12 47.72045 6.24372 35029 ft 423 kts 183°
2026-05-04 20:13 47.66157 6.24324 35030 ft 423 kts 183°
2026-05-04 20:13 47.60263 6.24285 35025 ft 423 kts 184°
2026-05-04 20:14 47.54413 6.24243 35028 ft 423 kts 184°
2026-05-04 20:14 47.48525 6.24201 35029 ft 423 kts 184°
2026-05-04 20:15 47.42632 6.24159 35030 ft 423 kts 184°
2026-05-04 20:15 47.36739 6.24123 35003 ft 423 kts 184°
2026-05-04 20:16 47.30844 6.24089 35013 ft 424 kts 184°
2026-05-04 20:16 47.24985 6.24041 35020 ft 424 kts 184°
2026-05-04 20:17 47.19076 6.23997 35031 ft 424 kts 184°
2026-05-04 20:17 47.13171 6.23960 35032 ft 425 kts 184°
2026-05-04 20:18 47.07262 6.23925 35027 ft 424 kts 184°
2026-05-04 20:18 47.01419 6.23518 35030 ft 422 kts 188°
2026-05-04 20:19 46.95579 6.22616 35034 ft 422 kts 189°
2026-05-04 20:19 46.89750 6.21681 35037 ft 422 kts 189°
2026-05-04 20:20 46.83903 6.20877 35044 ft 422 kts 188°
2026-05-04 20:20 46.78053 6.20124 35040 ft 422 kts 188°
2026-05-04 20:21 46.72248 6.19375 35050 ft 421 kts 188°
2026-05-04 20:21 46.63500 6.18218 35049 ft 421 kts 188°
2026-05-04 20:22 46.57675 6.17445 35048 ft 420 kts 188°
2026-05-04 20:22 46.51852 6.16672 35058 ft 420 kts 188°
2026-05-04 20:23 46.46067 6.15917 35050 ft 420 kts 188°
2026-05-04 20:23 46.40247 6.15160 35049 ft 420 kts 188°
2026-05-04 20:24 46.34427 6.14401 35050 ft 420 kts 188°
2026-05-04 20:24 46.28615 6.13635 35055 ft 420 kts 188°
2026-05-04 20:25 46.22809 6.12790 35053 ft 419 kts 191°
2026-05-04 20:25 46.17095 6.11531 35049 ft 418 kts 192°
2026-05-04 20:26 46.11363 6.10134 35052 ft 418 kts 192°
2026-05-04 20:26 46.05618 6.08810 35026 ft 418 kts 191°
2026-05-04 20:27 45.99864 6.07539 35012 ft 418 kts 191°
2026-05-04 20:27 45.94146 6.06288 35011 ft 419 kts 191°
2026-05-04 20:28 45.88388 6.05023 35017 ft 419 kts 191°
2026-05-04 20:28 45.82623 6.03757 35021 ft 419 kts 191°
2026-05-04 20:29 45.76859 6.02475 35015 ft 419 kts 191°
2026-05-04 20:29 45.71131 6.01204 35022 ft 420 kts 191°
2026-05-04 20:30 45.65364 5.99933 35022 ft 419 kts 191°
2026-05-04 20:30 45.59598 5.98673 35017 ft 419 kts 191°
2026-05-04 20:31 45.53827 5.97407 35022 ft 419 kts 191°
2026-05-04 20:31 45.48099 5.96159 35021 ft 419 kts 191°
2026-05-04 20:32 45.42382 5.94595 35015 ft 418 kts 194°
2026-05-04 20:32 45.36725 5.92717 35013 ft 417 kts 195°
2026-05-04 20:33 45.31063 5.90850 35013 ft 418 kts 195°
2026-05-04 20:33 45.25433 5.89086 35012 ft 418 kts 194°
2026-05-04 20:34 45.19753 5.87343 35007 ft 417 kts 194°
2026-05-04 20:34 45.14075 5.85597 35005 ft 417 kts 194°
2026-05-04 20:35 45.08406 5.83839 35008 ft 417 kts 194°
2026-05-04 20:35 45.02774 5.82093 34995 ft 417 kts 195°
2026-05-04 20:36 44.97107 5.80353 34995 ft 416 kts 195°
2026-05-04 20:36 44.91451 5.78619 35000 ft 416 kts 195°
2026-05-04 20:37 44.85807 5.76877 34997 ft 415 kts 195°
2026-05-04 20:37 44.80206 5.75161 34991 ft 415 kts 195°
2026-05-04 20:38 44.74569 5.73442 34995 ft 414 kts 195°
2026-05-04 20:38 44.68934 5.71727 35000 ft 414 kts 195°
2026-05-04 20:39 44.63297 5.70006 35017 ft 415 kts 195°
2026-05-04 20:39 44.57697 5.68304 35011 ft 415 kts 195°
2026-05-04 20:40 44.52054 5.66599 35011 ft 415 kts 195°
2026-05-04 20:40 44.46412 5.64902 35006 ft 415 kts 195°
2026-05-04 20:41 44.40772 5.63197 35008 ft 415 kts 195°
2026-05-04 20:41 44.35289 5.60865 35016 ft 411 kts 203°
2026-05-04 20:42 44.30009 5.57951 35016 ft 411 kts 203°
2026-05-04 20:42 44.24688 5.55045 35016 ft 411 kts 203°
2026-05-04 20:43 44.19370 5.52145 35019 ft 410 kts 203°
2026-05-04 20:43 44.14052 5.49257 35029 ft 410 kts 203°
2026-05-04 20:44 44.08775 5.46385 35004 ft 410 kts 203°
2026-05-04 20:44 44.03469 5.43500 35011 ft 409 kts 203°
2026-05-04 20:45 43.98159 5.40619 35020 ft 410 kts 203°
2026-05-04 20:45 43.92849 5.37750 35016 ft 410 kts 203°
2026-05-04 20:46 43.87570 5.34899 35003 ft 410 kts 204°
2026-05-04 20:46 43.82259 5.32032 35018 ft 410 kts 203°
2026-05-04 20:47 43.76938 5.29172 35007 ft 410 kts 203°
2026-05-04 20:47 43.71657 5.26326 35002 ft 410 kts 203°
2026-05-04 20:48 43.66346 5.23464 34989 ft 410 kts 203°
2026-05-04 20:48 43.61027 5.20615 34995 ft 410 kts 203°
2026-05-04 20:49 43.55707 5.17774 34969 ft 410 kts 203°
2026-05-04 20:49 43.50381 5.14936 34959 ft 410 kts 203°
2026-05-04 20:50 43.45092 5.12123 34963 ft 410 kts 203°
2026-05-04 20:50 43.39774 5.09268 34968 ft 410 kts 206°
2026-05-04 20:51 43.34934 5.05194 34973 ft 408 kts 216°
2026-05-04 20:51 43.30260 5.00767 34958 ft 408 kts 215°
2026-05-04 20:52 43.25601 4.96400 34969 ft 409 kts 215°
2026-05-04 20:52 43.20902 4.91999 34997 ft 409 kts 215°
2026-05-04 20:53 43.16198 4.87591 34983 ft 410 kts 215°
2026-05-04 20:53 43.11495 4.83174 34968 ft 410 kts 215°
2026-05-04 20:54 43.06814 4.78805 34974 ft 410 kts 215°
2026-05-04 20:54 43.01889 4.74851 34977 ft 411 kts 210°
2026-05-04 20:55 42.96885 4.71064 34975 ft 411 kts 210°
2026-05-04 20:55 42.91877 4.67276 34961 ft 411 kts 211°
2026-05-04 20:56 42.86906 4.63521 34968 ft 411 kts 210°
2026-05-04 20:56 42.81905 4.59748 34971 ft 411 kts 211°
2026-05-04 20:57 42.76904 4.55968 34982 ft 411 kts 210°
2026-05-04 20:57 42.71894 4.52193 34975 ft 412 kts 210°
2026-05-04 20:58 42.66901 4.48454 34972 ft 412 kts 210°
2026-05-04 20:58 42.61875 4.44695 34969 ft 412 kts 210°
2026-05-04 20:59 42.56852 4.40941 34955 ft 412 kts 210°
2026-05-04 20:59 42.51825 4.37189 34939 ft 412 kts 210°
2026-05-04 21:00 42.46831 4.33469 34944 ft 412 kts 210°
2026-05-04 21:00 42.41797 4.29732 34950 ft 413 kts 210°
2026-05-04 21:01 42.36762 4.26002 34954 ft 413 kts 210°
2026-05-04 21:01 42.31727 4.22269 34943 ft 413 kts 211°
2026-05-04 21:02 42.26727 4.18568 34976 ft 412 kts 210°
2026-05-04 21:02 42.21691 4.14856 34966 ft 412 kts 210°
2026-05-04 21:03 42.16661 4.11150 34963 ft 412 kts 210°
2026-05-04 21:03 42.11632 4.07442 34948 ft 412 kts 211°
2026-05-04 21:04 42.06636 4.03787 34954 ft 412 kts 211°
2026-05-04 21:04 42.01605 4.00104 34959 ft 412 kts 211°
2026-05-04 21:05 41.96576 3.96425 34954 ft 411 kts 211°
2026-05-04 21:05 41.91539 3.92759 34942 ft 412 kts 210°
2026-05-04 21:06 41.86471 3.89294 34959 ft 412 kts 209°
2026-05-04 21:06 41.81334 3.85905 34972 ft 411 kts 209°
2026-05-04 21:07 41.76216 3.82514 34970 ft 410 kts 209°
2026-05-04 21:07 41.71110 3.79087 34956 ft 410 kts 209°
2026-05-04 21:08 41.66061 3.75695 34958 ft 409 kts 209°
2026-05-04 21:08 41.60973 3.72295 34964 ft 408 kts 209°
2026-05-04 21:09 41.55887 3.68914 34962 ft 409 kts 209°
2026-05-04 21:09 41.50797 3.65528 34967 ft 409 kts 209°
2026-05-04 21:10 41.45747 3.62167 34956 ft 408 kts 210°
2026-05-04 21:10 41.40665 3.58804 34968 ft 408 kts 209°
2026-05-04 21:11 41.35581 3.55449 34970 ft 407 kts 210°
2026-05-04 21:11 41.30510 3.52092 34970 ft 407 kts 210°
2026-05-04 21:12 41.25479 3.48762 34969 ft 407 kts 210°
2026-05-04 21:12 41.20401 3.45427 34976 ft 407 kts 209°
2026-05-04 21:13 41.14956 3.43202 34972 ft 414 kts 196°
2026-05-04 21:13 41.09304 3.41730 34978 ft 414 kts 196°
2026-05-04 21:14 41.03696 3.40255 34961 ft 414 kts 196°
2026-05-04 21:14 40.98056 3.38763 34969 ft 414 kts 196°
2026-05-04 21:15 40.92409 3.37268 34977 ft 414 kts 196°
2026-05-04 21:15 40.86761 3.35788 34980 ft 414 kts 196°
2026-05-04 21:16 40.81152 3.34325 34967 ft 414 kts 197°
2026-05-04 21:16 40.75506 3.32849 34973 ft 414 kts 197°
2026-05-04 21:17 40.69860 3.31376 34975 ft 414 kts 197°
2026-05-04 21:17 40.64214 3.29900 34979 ft 414 kts 197°
2026-05-04 21:18 40.58603 3.28436 34983 ft 414 kts 197°
2026-05-04 21:18 40.52958 3.26963 34985 ft 414 kts 197°
2026-05-04 21:19 40.47314 3.25495 34990 ft 414 kts 197°
2026-05-04 21:19 40.41665 3.24041 34964 ft 413 kts 197°
2026-05-04 21:20 40.36063 3.22593 34979 ft 413 kts 197°
2026-05-04 21:20 40.30432 3.21134 34990 ft 412 kts 197°
2026-05-04 21:21 40.24805 3.19686 34985 ft 412 kts 197°
2026-05-04 21:21 40.19180 3.18238 34953 ft 411 kts 198°
2026-05-04 21:22 40.13611 3.16809 34991 ft 410 kts 198°
2026-05-04 21:22 40.08016 3.15371 34996 ft 409 kts 198°
2026-05-04 21:23 40.02431 3.13938 35001 ft 409 kts 198°
2026-05-04 21:23 39.96852 3.12508 34983 ft 408 kts 198°
2026-05-04 21:24 39.91509 3.10506 34994 ft 397 kts 211°
2026-05-04 21:24 39.86709 3.07068 35002 ft 393 kts 214°
2026-05-04 21:25 39.81930 3.03585 35002 ft 395 kts 214°
2026-05-04 21:25 39.77124 3.00093 34993 ft 396 kts 213°
2026-05-04 21:26 39.72309 2.96601 34982 ft 396 kts 214°
2026-05-04 21:26 39.67533 2.93128 34999 ft 396 kts 214°
2026-05-04 21:27 39.62715 2.89652 35004 ft 396 kts 214°
2026-05-04 21:27 39.57890 2.86182 35006 ft 396 kts 214°
2026-05-04 21:28 39.53072 2.82707 34990 ft 396 kts 214°
2026-05-04 21:28 39.48289 2.79258 35016 ft 396 kts 214°
2026-05-04 21:29 39.43646 2.75512 35018 ft 390 kts 224°
2026-05-04 21:29 39.40066 2.70337 34947 ft 384 kts 233°
2026-05-04 21:30 39.38400 2.67675 33804 ft 380 kts 232°
2026-05-04 21:30 39.36721 2.65007 32207 ft 383 kts 232°
2026-05-04 21:30 39.35090 2.62424 31655 ft 368 kts 232°
2026-05-04 21:30 39.33483 2.59888 31190 ft 365 kts 232°
2026-05-04 21:31 39.30249 2.54781 29603 ft 369 kts 232°
2026-05-04 21:31 39.28621 2.52209 28832 ft 371 kts 232°
2026-05-04 21:31 39.26986 2.49624 28051 ft 373 kts 232°
2026-05-04 21:32 39.25338 2.47019 27189 ft 376 kts 232°
2026-05-04 21:32 39.23678 2.44394 26273 ft 379 kts 232°
2026-05-04 21:32 39.22025 2.41786 25385 ft 382 kts 232°
2026-05-04 21:32 39.20333 2.39123 24498 ft 386 kts 232°
2026-05-04 21:33 39.18630 2.36447 23663 ft 386 kts 232°
2026-05-04 21:33 39.16932 2.33783 22860 ft 383 kts 232°
2026-05-04 21:33 39.15253 2.31149 22198 ft 378 kts 232°
2026-05-04 21:33 39.13589 2.28545 21530 ft 375 kts 232°
2026-05-04 21:34 39.11935 2.25955 20836 ft 373 kts 232°
2026-05-04 21:34 39.10293 2.23382 20152 ft 371 kts 232°
2026-05-04 21:34 39.08661 2.20826 19482 ft 368 kts 232°
2026-05-04 21:34 39.07039 2.18287 18836 ft 366 kts 232°
2026-05-04 21:35 39.05425 2.15760 18162 ft 364 kts 232°
2026-05-04 21:35 39.03853 2.13298 17699 ft 355 kts 232°
2026-05-04 21:35 39.02323 2.10914 17563 ft 337 kts 232°
2026-05-04 21:35 39.00892 2.08693 17374 ft 307 kts 232°
2026-05-04 21:36 38.99596 2.06680 17217 ft 280 kts 232°